This is the latest recevied weather packets stored in our database for station/object W8KHW. If no packets are shown the sender has not sent any weather packets the latest 10 day(s).
| Time | Temp. | Humidity | Pressure | Rain* | Wind** | Luminosity | Snow |
|---|---|---|---|---|---|---|---|
| 1777788411 | 0.56° C | 93% | 1018.3 hPa | 0 mm | - | - | - |
| 1777787911 | 0.56° C | 93% | 1018.2 hPa | 0 mm | - | - | - |
| 1777787411 | 0.56° C | 92% | 1018.4 hPa | 0 mm | - | - | - |
| 1777786910 | 0.56° C | 92% | 1018.5 hPa | 0 mm | - | - | - |
| 1777786410 | 0.56° C | 92% | 1018.4 hPa | 0 mm | - | - | - |
| 1777785910 | 0.56° C | 91% | 1018.3 hPa | 0 mm | - | - | - |
| 1777785410 | 1.11° C | 91% | 1018.4 hPa | 0 mm | - | - | - |
| 1777784910 | 1.11° C | 91% | 1018.2 hPa | 0 mm | - | - | - |
| 1777784409 | 1.67° C | 90% | 1018.4 hPa | 0 mm | - | - | - |
| 1777783909 | 1.67° C | 89% | 1018.2 hPa | 0 mm | - | - | - |
| 1777783409 | 1.67° C | 89% | 1018.4 hPa | 0 mm | - | - | - |
| 1777782909 | 2.22° C | 88% | 1018.3 hPa | 0 mm | - | - | - |
| 1777782409 | 2.22° C | 88% | 1018.4 hPa | 0 mm | - | - | - |
| 1777781908 | 2.22° C | 87% | 1018.3 hPa | 0 mm | - | - | - |
| 1777781408 | 2.78° C | 86% | 1018.3 hPa | 0 mm | - | - | - |
| 1777780908 | 2.78° C | 85% | 1018.3 hPa | 0 mm | - | - | - |
| 1777780408 | 2.78° C | 84% | 1018.7 hPa | 0 mm | - | - | - |
| 1777779908 | 2.78° C | 84% | 1018.4 hPa | 0 mm | - | - | - |
| 1777779407 | 2.78° C | 84% | 1018.6 hPa | 0 mm | - | - | - |
| 1777778907 | 3.33° C | 84% | 1018.4 hPa | 0 mm | - | - | - |
| 1777778407 | 2.78° C | 84% | 1018.4 hPa | 0 mm | - | - | - |
| 1777777907 | 2.78° C | 83% | 1018.4 hPa | 0 mm | - | - | - |
| 1777777406 | 2.78° C | 82% | 1018.5 hPa | 0 mm | - | - | - |
| 1777776906 | 3.33° C | 82% | 1018.7 hPa | 0 mm | - | - | - |
| 1777776406 | 2.78° C | 80% | 1018.6 hPa | 0 mm | - | - | - |
* Rain latest hour (hover to see other rain measurements)
** Current wind speed in m/s (hover to see current wind gust speed)